[[{"header":{"parameterUnit":"m.s-1","parameterCategory":1,"la1":30.2992,"la2":30.254,"lo1":-89.0895,"lo2":-89.0443,"dy":0.0025,"dx":0.0025,"nx":19,"ny":19,"refTime":"2026-05-21T09:00:00:Z","depth":0,"parameterNumber":2,"parameterNumberName":"U-component_of_WINDS"},"data":[0,0,0,0.8485,0.8484,0.8438,0.8437,0.8403,0.8403,0,0,0,0,0,0,0,0,0,0,0,0.8515,0.8515,0.8485,0.8484,0.8438,0.8437,0.8403,0.8403,0,0,0,0,0,0,0,0,0,0,0,0.8515,0.8515,0.8515,0.8484,0.8438,0.8437,0.8403,0.8429,0,0,0,0,0,0,0,0,0,0,0.847,0.8514,0.8515,0.8515,0.8484,0.8438,0.8437,0.843,0.8428,0.8435,0,0.8447,0,0.8425,0.8403,0.8403,0,0,0,0.8472,0.8516,0.8489,0.8515,0.8484,0.8438,0.8455,0.8428,0.8426,0.8432,0.8447,0.8445,0.8424,0.8403,0.8403,0.849,0.8491,0,0,0.8474,0.8515,0.8491,0.8488,0.8497,0.8457,0.8454,0.8426,0.8444,0.8446,0.8443,0.8424,0.8402,0.8402,0.8489,0.849,0,0,0,0.849,0.8517,0.849,0.849,0.848,0.8456,0.8452,0.8445,0.8433,0.8443,0.8423,0.8402,0.8402,0.8488,0.8489,0.8577,0,0,0,0.8491,0.8526,0.8492,0.8516,0.8481,0.8462,0.8473,0.8435,0.8431,0.8424,0.8402,0.8402,0.8487,0.8489,0.8572,0.8612,0,0,0,0.8512,0.8528,0.8527,0.8519,0.85,0.8462,0.8447,0.8433,0.842,0.8403,0.8402,0.8486,0.8488,0.8568,0.8605,0.8647,0,0,0,0.8546,0.8606,0.853,0.8589,0.8501,0.8517,0.8447,0.8457,0.8453,0.8402,0.8487,0.8489,0.8567,0.86,0.8642,0.8689,0.8712,0,0,0.8645,0.862,0.8651,0.8581,0.8621,0.852,0.8572,0.853,0.8491,0.8492,0.8494,0.8574,0.8604,0.8646,0.8829,0.8848,0,0,0,0.8696,0.8719,0.8721,0.8719,0.8688,0.8665,0.861,0.8595,0.8593,0.85,0.8599,0.8616,0.8638,0.8659,0.8675,0.8691,0.85,0.85,0.85,0.8893,0.884,0.8889,0.883,0.8829,0.8772,0.8766,0.8735,0.8682,0.8706,0.8706,0.8824,0.885,0.8861,0.8879,0.8726,0.8727,0.8727,0.8727,0.9032,0.9056,0.8984,0.9005,0.8949,0.8965,0.8912,0.8874,0.8881,0.882,0.8837,0.8774,0.8884,0.8896,0.8733,0.8732,0.8731,0.8731,0.873,0.9155,0.9157,0.9137,0.9128,0.9128,0.9066,0.9076,0.9024,0.8975,0.8992,0.8986,0.8984,0.8976,0.8993,0.8993,0.8994,0.8994,0.8994,0.8994,0.9291,0.9265,0.928,0.9252,0.9244,0.9226,0.9169,0.9159,0.9135,0.9096,0.9095,0.904,0.8904,0.8871,0.9001,0.8999,0.8999,0.8998,0.8998,0.945,0.9406,0.943,0.9422,0.9384,0.9386,0.932,0.9304,0.9288,0.9294,0.9235,0.9143,0.9114,0.9101,0.9073,0.9246,0.9246,0.9246,0.9246,0.9554,0.9534,0.9546,0.9536,0.9521,0.9463,0.949,0.9446,0.9393,0.938,0.9347,0.9306,0.9295,0.9272,0.9255,0.9228,0.9438,0.9438,0.9438,0.9649,0.9625,0.9659,0.9608,0.9575,0.9547,0.9571,0.9562,0.9493,0.9444,0.9368,0.936,0.9293,0.9274,0.9225,0.92,0.915,0,0]},{"header":{"parameterUnit":"m.s-1","parameterCategory":1,"la1":30.2992,"la2":30.254,"lo1":-89.0895,"lo2":-89.0443,"dy":0.0025,"dx":0.0025,"nx":19,"ny":19,"refTime":"2026-05-21T09:00:00:Z","depth":0,"parameterNumber":3,"parameterNumberName":"V-component_of_WINDS"},"data":[0,0,0,6.7638,6.7644,6.7927,6.7928,6.8269,6.8272,0,0,0,0,0,0,0,0,0,0,0,6.7545,6.7547,6.7638,6.7645,6.7927,6.7928,6.8269,6.8272,0,0,0,0,0,0,0,0,0,0,0,6.7544,6.7546,6.7549,6.7646,6.7927,6.7929,6.8268,6.8061,0,0,0,0,0,0,0,0,0,0,6.779,6.7695,6.7546,6.7549,6.7647,6.7927,6.7929,6.8052,6.8074,6.8133,0,6.8186,0,6.8235,6.8294,6.8295,0,0,0,6.7651,6.7676,6.7761,6.7549,6.765,6.7926,6.7801,6.8065,6.809,6.8163,6.8191,6.8204,6.824,6.8296,6.8298,6.8626,6.8627,0,0,6.7635,6.7589,6.7744,6.7778,6.7736,6.7792,6.781,6.808,6.8106,6.8192,6.8212,6.8246,6.8298,6.8301,6.8625,6.8626,0,0,0,6.7586,6.7578,6.7658,6.7763,6.7816,6.78,6.7821,6.8094,6.8124,6.8216,6.825,6.83,6.8304,6.8623,6.8625,6.8644,0,0,0,6.7577,6.755,6.765,6.7625,6.7811,6.7959,6.7828,6.8105,6.8137,6.8248,6.83,6.8307,6.8622,6.8624,6.8641,6.866,0,0,0,6.7529,6.7544,6.7582,6.7622,6.7743,6.7956,6.8002,6.8113,6.8158,6.8295,6.8308,6.8621,6.8624,6.8638,6.8655,6.8734,0,0,0,6.7464,6.7593,6.7582,6.7738,6.774,6.7966,6.8,6.817,6.8291,6.8302,6.8622,6.8625,6.8637,6.8652,6.873,6.8792,6.8814,0,0,6.76,6.7607,6.7703,6.7702,6.7919,6.7927,6.8146,6.8298,6.835,6.853,6.8539,6.8642,6.8655,6.8733,6.8951,6.8967,0,0,0,6.773,6.7799,6.7866,6.7981,6.8102,6.8207,6.833,6.8386,6.8542,6.8435,6.8693,6.8702,6.875,6.8781,6.8796,6.884,6.8638,6.8637,6.8637,6.7856,6.7921,6.8083,6.8181,6.8291,6.8419,6.8514,6.8611,6.864,6.87,6.8754,6.8878,6.8914,6.8925,6.897,6.8792,6.8792,6.8792,6.8792,6.8062,6.8168,6.8208,6.838,6.8446,6.859,6.8717,6.8734,6.8876,6.8843,6.8888,6.8846,6.8942,6.8984,6.8794,6.8794,6.8793,6.8793,6.8793,6.8151,6.8214,6.8282,6.8456,6.8581,6.8676,6.8812,6.8866,6.8918,6.8963,6.9026,6.9026,6.9032,6.8989,6.899,6.899,6.899,6.8991,6.8991,6.8217,6.8294,6.8404,6.8545,6.8627,6.874,6.887,6.8951,6.9054,6.9083,6.9084,6.9107,6.894,6.8896,6.8998,6.8997,6.8996,6.8995,6.8995,6.8401,6.8369,6.8538,6.862,6.8791,6.8912,6.8981,6.9141,6.9215,6.9281,6.9296,6.9163,6.9173,6.9162,6.9126,6.9282,6.9282,6.9282,6.9282,6.8477,6.8488,6.8675,6.8802,6.8933,6.9013,6.9201,6.9303,6.9403,6.9453,6.9438,6.9396,6.9382,6.94,6.9384,6.9352,6.9561,6.9562,6.9562,6.8594,6.8621,6.8771,6.8872,6.901,6.9126,6.9305,6.9447,6.9554,6.9574,6.9493,6.9481,6.9414,6.9389,6.9406,6.9379,6.9322,0,0]}]]